When you browse on this site, cookies collect data to enhance your experience and personalize the content and advertising you see.
Visit our Privacy Policy to learn more. By continuing to use the site, you agree to this use of cookies and data.
  • In United Kingdom
  • List of Countries
  • For 7 days
  • Water Temperature
  • Weather Map
  • Weather Widgets
  • user-avatar
    Login

    Hourly Weather Nemenka

    Today, 7 April, Tuesday

    Time Temperature Precipitation Wind Pressure Humidity
    00:00 +7°C° 0 mm 1 mps 756 mmHg 43%
    01:00 +7°C° 0 mm 1 mps 756 mmHg 44%
    02:00 +7°C° 0 mm 1 mps 756 mmHg 45%
    03:00 +6°C° 0 mm 1 mps 756 mmHg 46%
    04:00 +6°C° 0 mm 1 mps 756 mmHg 47%
    05:00 +6°C° 0 mm 1 mps 756 mmHg 48%
    06:00 +7°C° 0 mm 1 mps 756 mmHg 45%
    07:00 +8°C° 0 mm 1 mps 756 mmHg 43%
    08:00 +10°C° 0 mm 1 mps 756 mmHg 40%
    09:00 +11°C° 0 mm 1 mps 757 mmHg 37%
    10:00 +13°C° 0 mm 1 mps 757 mmHg 33%
    11:00 +14°C° 0 mm 2 mps 757 mmHg 30%
    12:00 +15°C° 0 mm 2 mps 757 mmHg 29%
    13:00 +16°C° 0 mm 1 mps 756 mmHg 28%
    14:00 +16°C° 0 mm 1 mps 756 mmHg 27%
    15:00 +16°C° 0 mm 1 mps 756 mmHg 27%
    16:00 +16°C° 0 mm 1 mps 755 mmHg 27%
    17:00 +16°C° 0 mm 1 mps 755 mmHg 27%
    18:00 +14°C° 0 mm 1 mps 755 mmHg 31%
    19:00 +13°C° 0 mm 1 mps 754 mmHg 35%
    20:00 +11°C° 0 mm 1 mps 754 mmHg 38%
    21:00 +11°C° 0 mm 1 mps 754 mmHg 40%
    22:00 +10°C° 0 mm 1 mps 754 mmHg 42%
    23:00 +10°C° 0 mm 1 mps 754 mmHg 44%

    Tomorrow, 8 April, Wednesday

    Time Temperature Precipitation Wind Pressure Humidity
    00:00 +9°C° 0 mm 1 mps 754 mmHg 45%
    01:00 +9°C° 0 mm 1 mps 754 mmHg 47%
    02:00 +8°C° 0 mm 1 mps 754 mmHg 48%
    03:00 +7°C° 0 mm 2 mps 754 mmHg 50%
    04:00 +6°C° 0 mm 2 mps 753 mmHg 51%
    05:00 +6°C° 0 mm 2 mps 753 mmHg 52%
    06:00 +7°C° 0 mm 2 mps 753 mmHg 50%
    07:00 +9°C° 0 mm 2 mps 752 mmHg 47%
    08:00 +10°C° 0 mm 3 mps 752 mmHg 45%
    09:00 +12°C° 0 mm 3 mps 752 mmHg 40%
    10:00 +14°C° 0 mm 4 mps 752 mmHg 35%
    11:00 +17°C° 0 mm 4 mps 751 mmHg 30%
    12:00 +17°C° 0 mm 4 mps 751 mmHg 30%
    13:00 +18°C° 0 mm 4 mps 750 mmHg 29%
    14:00 +19°C° 0 mm 4 mps 750 mmHg 29%
    15:00 +19°C° 0 mm 4 mps 749 mmHg 31%
    16:00 +18°C° 0 mm 4 mps 749 mmHg 34%
    17:00 +18°C° 0 mm 4 mps 748 mmHg 36%
    18:00 +17°C° 0 mm 3 mps 748 mmHg 44%
    19:00 +14°C° 0 mm 3 mps 748 mmHg 51%
    20:00 +13°C° 0 mm 2 mps 748 mmHg 58%
    21:00 +12°C° 0 mm 2 mps 748 mmHg 60%
    22:00 +12°C° 0 mm 2 mps 748 mmHg 63%
    23:00 +10°C° 0 mm 2 mps 748 mmHg 65%

    Day after tomorrow, 9 April, Thursday

    Time Temperature Precipitation Wind Pressure Humidity
    00:00 +9°C° 0 mm 2 mps 748 mmHg 65%
    01:00 +10°C° 0 mm 1 mps 747 mmHg 65%
    02:00 +9°C° 0 mm 1 mps 747 mmHg 65%
    03:00 +8°C° 0 mm 1 mps 747 mmHg 67%
    04:00 +8°C° 0 mm 1 mps 747 mmHg 69%
    05:00 +6°C° 0 mm 0 mps 747 mmHg 71%
    06:00 +8°C° 0 mm 0 mps 747 mmHg 66%
    07:00 +10°C° 0 mm 0 mps 747 mmHg 62%
    08:00 +11°C° 0 mm 0 mps 747 mmHg 57%
    09:00 +14°C° 0 mm 1 mps 746 mmHg 50%
    10:00 +15°C° 0 mm 1 mps 746 mmHg 44%
    11:00 +17°C° 0 mm 2 mps 746 mmHg 38%
    12:00 +18°C° 0 mm 2 mps 745 mmHg 35%
    13:00 +18°C° 0 mm 2 mps 745 mmHg 33%
    14:00 +19°C° 0 mm 2 mps 745 mmHg 30%
    15:00 +19°C° 0 mm 2 mps 744 mmHg 31%
    16:00 +19°C° 0 mm 2 mps 744 mmHg 33%
    17:00 +19°C° 0 mm 2 mps 743 mmHg 34%
    18:00 +18°C° 0 mm 2 mps 743 mmHg 39%
    19:00 +16°C° 0 mm 2 mps 743 mmHg 44%
    20:00 +15°C° 0 mm 2 mps 742 mmHg 49%
    21:00 +14°C° 0 mm 2 mps 742 mmHg 52%
    22:00 +13°C° 0 mm 2 mps 742 mmHg 55%
    23:00 +12°C° 0 mm 3 mps 742 mmHg 57%

    10 April, Friday

    Time Temperature Precipitation Wind Pressure Humidity
    00:00 +11°C° 0 mm 3 mps 741 mmHg 58%
    01:00 +11°C° 0 mm 3 mps 741 mmHg 58%
    02:00 +10°C° 0 mm 3 mps 741 mmHg 59%
    03:00 +10°C° 0 mm 3 mps 740 mmHg 60%
    04:00 +9°C° 0 mm 3 mps 740 mmHg 62%
    05:00 +9°C° 0 mm 3 mps 740 mmHg 63%
    06:00 +10°C° 0 mm 4 mps 740 mmHg 63%
    07:00 +10°C° 0 mm 5 mps 740 mmHg 63%
    08:00 +11°C° 0 mm 6 mps 740 mmHg 63%
    09:00 +11°C° 0.1 mm 7 mps 741 mmHg 62%
    10:00 +12°C° 0.1 mm 7 mps 741 mmHg 61%
    11:00 +12°C° 0.1 mm 7 mps 741 mmHg 60%
    12:00 +12°C° 0.1 mm 7 mps 741 mmHg 55%
    13:00 +13°C° 0.1 mm 8 mps 741 mmHg 50%
    14:00 +13°C° 0.1 mm 8 mps 742 mmHg 45%
    15:00 +12°C° 0 mm 8 mps 742 mmHg 46%
    16:00 +11°C° 0 mm 8 mps 742 mmHg 46%
    17:00 +10°C° 0 mm 8 mps 742 mmHg 47%
    18:00 +9°C° 0 mm 7 mps 743 mmHg 46%
    19:00 +8°C° 0 mm 6 mps 743 mmHg 45%
    20:00 +6°C° 0 mm 5 mps 744 mmHg 44%
    21:00 +6°C° 0 mm 5 mps 744 mmHg 47%
    22:00 +5°C° 0 mm 4 mps 744 mmHg 50%
    23:00 +4°C° 0 mm 4 mps 745 mmHg 53%

    11 April, Saturday

    Time Temperature Precipitation Wind Pressure Humidity
    00:00 +4°C° 0 mm 4 mps 745 mmHg 56%
    01:00 +3°C° 0 mm 4 mps 745 mmHg 59%
    02:00 +3°C° 0 mm 4 mps 745 mmHg 62%
    03:00 +1°C° 0 mm 4 mps 745 mmHg 65%
    04:00 +2°C° 0 mm 3 mps 745 mmHg 68%
    05:00 +2°C° 0 mm 3 mps 746 mmHg 71%
    06:00 +3°C° 0 mm 4 mps 746 mmHg 66%
    07:00 +4°C° 0 mm 4 mps 746 mmHg 62%
    08:00 +5°C° 0 mm 5 mps 746 mmHg 57%
    09:00 +6°C° 0 mm 5 mps 746 mmHg 50%
    10:00 +7°C° 0 mm 5 mps 747 mmHg 42%
    11:00 +8°C° 0 mm 6 mps 747 mmHg 35%
    12:00 +9°C° 0 mm 6 mps 747 mmHg 34%
    13:00 +9°C° 0 mm 6 mps 747 mmHg 33%
    14:00 +10°C° 0 mm 5 mps 747 mmHg 31%
    15:00 +10°C° 0 mm 5 mps 746 mmHg 32%
    16:00 +9°C° 0 mm 5 mps 746 mmHg 32%
    17:00 +10°C° 0 mm 4 mps 746 mmHg 33%
    18:00 +8°C° 0 mm 4 mps 746 mmHg 37%
    19:00 +7°C° 0 mm 3 mps 746 mmHg 40%
    20:00 +6°C° 0 mm 2 mps 747 mmHg 44%
    21:00 +6°C° 0 mm 2 mps 747 mmHg 45%
    22:00 +6°C° 0 mm 1 mps 747 mmHg 46%
    23:00 +6°C° 0 mm 1 mps 747 mmHg 47%

    12 April, Sunday

    Time Temperature Precipitation Wind Pressure Humidity
    00:00 +6°C° 0 mm 1 mps 747 mmHg 49%
    01:00 +5°C° 0 mm 1 mps 747 mmHg 51%
    02:00 +5°C° 0 mm 1 mps 747 mmHg 53%
    03:00 +4°C° 0 mm 1 mps 747 mmHg 55%
    04:00 +4°C° 0 mm 1 mps 747 mmHg 56%
    05:00 +4°C° 0 mm 1 mps 747 mmHg 58%
    06:00 +5°C° 0 mm 1 mps 747 mmHg 55%
    07:00 +5°C° 0 mm 2 mps 747 mmHg 53%
    08:00 +6°C° 0 mm 2 mps 747 mmHg 50%
    09:00 +8°C° 0 mm 2 mps 747 mmHg 45%
    10:00 +9°C° 0 mm 2 mps 747 mmHg 41%
    11:00 +10°C° 0 mm 3 mps 746 mmHg 36%
    12:00 +11°C° 0 mm 3 mps 746 mmHg 35%
    13:00 +12°C° 0 mm 3 mps 746 mmHg 34%
    14:00 +13°C° 0 mm 3 mps 745 mmHg 33%
    15:00 +14°C° 0 mm 3 mps 745 mmHg 34%
    16:00 +14°C° 0 mm 3 mps 744 mmHg 35%
    17:00 +14°C° 0 mm 3 mps 744 mmHg 36%
    18:00 +12°C° 0 mm 3 mps 744 mmHg 41%
    19:00 +11°C° 0 mm 3 mps 744 mmHg 46%
    20:00 +9°C° 0 mm 3 mps 743 mmHg 50%
    21:00 +8°C° 0 mm 4 mps 743 mmHg 51%
    22:00 +8°C° 0 mm 4 mps 743 mmHg 52%
    23:00 +7°C° 0 mm 5 mps 743 mmHg 52%
    Show more